When you browse on this site, cookies collect data to enhance your experience and personalize the content and advertising you see.
Visit our Privacy Policy to learn more. By continuing to use the site, you agree to this use of cookies and data.
  • en Suisse
  • Liste des pays
  • À 7 jours
  • Température de l'eau
  • Carte météo
  • Widgets météo
  • user-avatar
    Se connecter

    Météo par heure à Yanji

    Ce jour, 3 Juin, Mercredi

    Heure Température Précipitation Vent Pression Humidité
    00:00 +13°C° 0 mm 1 m/s 735 mmHg 87%
    01:00 +13°C° 0 mm 1 m/s 734 mmHg 88%
    02:00 +12°C° 0 mm 1 m/s 734 mmHg 89%
    03:00 +12°C° 0 mm 1 m/s 734 mmHg 90%
    04:00 +11°C° 0 mm 0 m/s 734 mmHg 88%
    05:00 +12°C° 0 mm 0 m/s 734 mmHg 86%
    06:00 +12°C° 0 mm 0 m/s 735 mmHg 84%
    07:00 +16°C° 0 mm 1 m/s 734 mmHg 74%
    08:00 +20°C° 0 mm 1 m/s 734 mmHg 63%
    09:00 +23°C° 0 mm 2 m/s 734 mmHg 50%
    10:00 +25°C° 0 mm 2 m/s 733 mmHg 44%
    11:00 +27°C° 0 mm 2 m/s 733 mmHg 39%
    12:00 +29°C° 0 mm 2 m/s 733 mmHg 33%
    13:00 +27°C° 0.2 mm 3 m/s 732 mmHg 43%
    14:00 +25°C° 0.2 mm 3 m/s 731 mmHg 52%
    15:00 +22°C° 0.2 mm 4 m/s 731 mmHg 62%
    16:00 +21°C° 1.2 mm 3 m/s 731 mmHg 70%
    17:00 +19°C° 1.2 mm 2 m/s 731 mmHg 79%
    18:00 +19°C° 1.2 mm 1 m/s 731 mmHg 87%
    19:00 +18°C° 1.2 mm 1 m/s 731 mmHg 90%
    20:00 +16°C° 1.2 mm 1 m/s 732 mmHg 93%
    21:00 +14°C° 1.2 mm 1 m/s 732 mmHg 96%
    22:00 +14°C° 0.8 mm 1 m/s 732 mmHg 96%
    23:00 +14°C° 0.8 mm 1 m/s 732 mmHg 97%

    Demain, 4 Juin, Jeudi

    Heure Température Précipitation Vent Pression Humidité
    00:00 +13°C° 0.8 mm 1 m/s 732 mmHg 98%
    01:00 +13°C° 1 mm 1 m/s 732 mmHg 98%
    02:00 +12°C° 1 mm 0 m/s 732 mmHg 98%
    03:00 +12°C° 1 mm 0 m/s 731 mmHg 98%
    04:00 +13°C° 0.8 mm 1 m/s 731 mmHg 97%
    05:00 +14°C° 0.8 mm 1 m/s 732 mmHg 96%
    06:00 +14°C° 0.8 mm 2 m/s 732 mmHg 95%
    07:00 +14°C° 0.6 mm 3 m/s 732 mmHg 86%
    08:00 +15°C° 0.6 mm 5 m/s 732 mmHg 78%
    09:00 +17°C° 0.6 mm 6 m/s 732 mmHg 69%
    10:00 +19°C° 0.1 mm 6 m/s 733 mmHg 61%
    11:00 +21°C° 0.1 mm 6 m/s 733 mmHg 52%
    12:00 +22°C° 0.1 mm 6 m/s 733 mmHg 44%
    13:00 +22°C° 0.1 mm 6 m/s 733 mmHg 45%
    14:00 +22°C° 0.1 mm 5 m/s 733 mmHg 46%
    15:00 +23°C° 0.1 mm 5 m/s 734 mmHg 47%
    16:00 +22°C° 0 mm 5 m/s 734 mmHg 49%
    17:00 +22°C° 0 mm 4 m/s 734 mmHg 52%
    18:00 +22°C° 0 mm 4 m/s 734 mmHg 55%
    19:00 +20°C° 0 mm 3 m/s 735 mmHg 62%
    20:00 +18°C° 0 mm 3 m/s 735 mmHg 69%
    21:00 +16°C° 0 mm 2 m/s 736 mmHg 77%
    22:00 +15°C° 0 mm 2 m/s 736 mmHg 80%
    23:00 +14°C° 0 mm 2 m/s 737 mmHg 83%

    Après-demain, 5 Juin, Vendredi

    Heure Température Précipitation Vent Pression Humidité
    00:00 +13°C° 0 mm 2 m/s 737 mmHg 86%
    01:00 +13°C° 0 mm 1 m/s 737 mmHg 87%
    02:00 +13°C° 0 mm 1 m/s 737 mmHg 88%
    03:00 +12°C° 0 mm 1 m/s 737 mmHg 89%
    04:00 +13°C° 0 mm 1 m/s 738 mmHg 87%
    05:00 +13°C° 0 mm 1 m/s 738 mmHg 86%
    06:00 +14°C° 0 mm 1 m/s 738 mmHg 84%
    07:00 +16°C° 0 mm 2 m/s 738 mmHg 76%
    08:00 +18°C° 0 mm 2 m/s 739 mmHg 68%
    09:00 +20°C° 0 mm 3 m/s 739 mmHg 60%
    10:00 +21°C° 0.5 mm 3 m/s 739 mmHg 60%
    11:00 +22°C° 0.5 mm 3 m/s 739 mmHg 60%
    12:00 +22°C° 0.5 mm 4 m/s 739 mmHg 60%
    13:00 +24°C° 0.4 mm 3 m/s 739 mmHg 57%
    14:00 +24°C° 0.4 mm 3 m/s 739 mmHg 54%
    15:00 +25°C° 0.4 mm 2 m/s 739 mmHg 51%
    16:00 +24°C° 0.1 mm 2 m/s 739 mmHg 52%
    17:00 +24°C° 0.1 mm 1 m/s 739 mmHg 54%
    18:00 +24°C° 0.1 mm 1 m/s 740 mmHg 56%
    19:00 +22°C° 0 mm 1 m/s 740 mmHg 64%
    20:00 +19°C° 0 mm 1 m/s 740 mmHg 72%
    21:00 +16°C° 0 mm 1 m/s 741 mmHg 80%
    22:00 +15°C° 0 mm 1 m/s 741 mmHg 83%
    23:00 +14°C° 0 mm 1 m/s 741 mmHg 85%

    6 Juin, Samedi

    Heure Température Précipitation Vent Pression Humidité
    00:00 +14°C° 0 mm 1 m/s 742 mmHg 88%
    01:00 +13°C° 0 mm 1 m/s 742 mmHg 89%
    02:00 +12°C° 0 mm 0 m/s 742 mmHg 90%
    03:00 +11°C° 0 mm 0 m/s 742 mmHg 92%
    04:00 +12°C° 0 mm 0 m/s 742 mmHg 90%
    05:00 +13°C° 0 mm 1 m/s 742 mmHg 89%
    06:00 +14°C° 0 mm 1 m/s 742 mmHg 87%
    07:00 +18°C° 0 mm 1 m/s 742 mmHg 78%
    08:00 +20°C° 0 mm 1 m/s 742 mmHg 68%
    09:00 +23°C° 0 mm 1 m/s 742 mmHg 58%
    10:00 +25°C° 0 mm 1 m/s 742 mmHg 53%
    11:00 +27°C° 0 mm 1 m/s 742 mmHg 48%
    12:00 +28°C° 0 mm 1 m/s 742 mmHg 42%
    13:00 +28°C° 0 mm 1 m/s 742 mmHg 41%
    14:00 +29°C° 0 mm 1 m/s 741 mmHg 40%
    15:00 +29°C° 0 mm 1 m/s 741 mmHg 39%
    16:00 +28°C° 0 mm 1 m/s 741 mmHg 43%
    17:00 +27°C° 0 mm 1 m/s 741 mmHg 48%
    18:00 +26°C° 0 mm 1 m/s 740 mmHg 53%
    19:00 +24°C° 0 mm 1 m/s 741 mmHg 63%
    20:00 +21°C° 0 mm 1 m/s 741 mmHg 73%
    21:00 +18°C° 0 mm 1 m/s 741 mmHg 83%
    22:00 +16°C° 0 mm 1 m/s 741 mmHg 85%
    23:00 +16°C° 0 mm 1 m/s 741 mmHg 87%

    7 Juin, Dimanche

    Heure Température Précipitation Vent Pression Humidité
    00:00 +14°C° 0 mm 0 m/s 742 mmHg 89%
    01:00 +14°C° 0 mm 0 m/s 742 mmHg 90%
    02:00 +13°C° 0 mm 0 m/s 742 mmHg 91%
    03:00 +13°C° 0 mm 0 m/s 741 mmHg 91%
    04:00 +13°C° 0 mm 0 m/s 742 mmHg 90%
    05:00 +14°C° 0 mm 0 m/s 742 mmHg 88%
    06:00 +15°C° 0 mm 0 m/s 742 mmHg 86%
    07:00 +17°C° 0 mm 0 m/s 742 mmHg 76%
    08:00 +20°C° 0 mm 0 m/s 742 mmHg 66%
    09:00 +23°C° 0 mm 0 m/s 742 mmHg 56%
    10:00 +27°C° 0 mm 1 m/s 741 mmHg 51%
    11:00 +29°C° 0 mm 1 m/s 741 mmHg 46%
    12:00 +31°C° 0 mm 2 m/s 740 mmHg 41%
    13:00 +31°C° 0 mm 2 m/s 740 mmHg 39%
    14:00 +32°C° 0 mm 2 m/s 739 mmHg 37%
    15:00 +34°C° 0 mm 3 m/s 739 mmHg 36%
    16:00 +33°C° 0 mm 3 m/s 738 mmHg 41%
    17:00 +31°C° 0 mm 3 m/s 738 mmHg 46%
    18:00 +29°C° 0 mm 3 m/s 738 mmHg 52%
    19:00 +26°C° 0 mm 2 m/s 738 mmHg 60%
    20:00 +23°C° 0 mm 2 m/s 739 mmHg 68%
    21:00 +20°C° 0 mm 1 m/s 739 mmHg 76%
    22:00 +20°C° 0 mm 1 m/s 739 mmHg 79%
    23:00 +19°C° 0 mm 1 m/s 739 mmHg 83%

    8 Juin, Lundi

    Heure Température Précipitation Vent Pression Humidité
    00:00 +18°C° 0 mm 1 m/s 739 mmHg 86%
    01:00 +16°C° 0 mm 0 m/s 739 mmHg 87%
    02:00 +16°C° 0 mm 0 m/s 739 mmHg 88%
    03:00 +15°C° 0 mm 0 m/s 739 mmHg 89%
    04:00 +16°C° 0 mm 0 m/s 739 mmHg 87%
    05:00 +17°C° 0 mm 0 m/s 739 mmHg 85%
    06:00 +19°C° 0 mm 1 m/s 739 mmHg 83%
    07:00 +22°C° 0.1 mm 1 m/s 740 mmHg 75%
    08:00 +25°C° 0.1 mm 1 m/s 740 mmHg 67%
    09:00 +28°C° 0.1 mm 1 m/s 740 mmHg 60%
    10:00 +30°C° 0 mm 3 m/s 740 mmHg 51%
    11:00 +34°C° 0 mm 4 m/s 740 mmHg 42%
    12:00 +36°C° 0 mm 5 m/s 740 mmHg 33%
    13:00 +38°C° 0 mm 6 m/s 739 mmHg 32%
    14:00 +39°C° 0 mm 6 m/s 739 mmHg 30%
    15:00 +39°C° 0 mm 6 m/s 739 mmHg 29%
    16:00 +37°C° 0 mm 5 m/s 739 mmHg 33%
    17:00 +35°C° 0 mm 5 m/s 739 mmHg 37%
    18:00 +34°C° 0 mm 4 m/s 739 mmHg 41%
    19:00 +31°C° 0 mm 3 m/s 740 mmHg 48%
    20:00 +28°C° 0 mm 2 m/s 740 mmHg 55%
    21:00 +26°C° 0 mm 2 m/s 741 mmHg 62%
    22:00 +25°C° 0 mm 1 m/s 741 mmHg 66%
    23:00 +24°C° 0 mm 1 m/s 741 mmHg 70%
    Voir plus